Date String (YYYY-MM-DD hh:mm:ss) UTC,Instrument flags,Ambient pressure (hPa),Sample flow (lpm),Bypass flow (lpm),Sample temperature (°C),Ambient temperature (°C),ASC tube jacket temperature (°C),LED temperature (°C),Box temperature (°C),Sample RH (%),Span deviation,Mass concentration (μg/m³),Mass concentration (μg/m³),Mass concentration (μg/m³)
DateTimeUTC,F1_M11,P_M11,Q1_M11,Q2_M11,T1_M11,T2_M11,T3_M11,T4_M11,T5_M11,U1_M11,ZSPAN_M11,X0_M11,X2_M11,X1_M11
2022-02-15 06:00:00,,0819.9,5.01,0.00,24.0,23.2,00.0,33.1,25.6,05.1,0000.0,0006.21,0003.03,0002.39
2022-02-15 06:01:00,,0819.9,4.99,0.00,23.9,23.1,00.0,33.1,25.5,05.3,0000.0,0006.12,0002.96,0002.34
2022-02-15 06:02:00,,0819.9,5.01,0.00,23.9,23.0,00.0,33.0,25.5,05.3,0000.0,0005.86,0002.91,0002.29
2022-02-15 06:03:00,,0819.9,4.99,0.00,23.8,23.0,00.0,33.0,25.5,05.2,0000.0,0005.34,0002.86,0002.24
2022-02-15 06:04:00,,0819.8,5.01,0.00,23.8,23.0,00.0,33.0,25.5,05.2,0000.0,0005.09,0002.84,0002.20
2022-02-15 06:05:00,,0819.8,5.01,0.00,23.8,23.0,00.0,33.0,25.4,05.2,0000.0,0004.88,0002.79,0002.12
2022-02-15 06:06:00,,0819.8,4.99,0.00,23.8,23.0,00.0,33.0,25.5,05.1,0000.0,0004.36,0002.54,0001.99
2022-02-15 06:07:00,,0819.8,4.99,0.00,23.8,23.0,00.0,33.0,25.5,05.0,0000.0,0004.05,0002.38,0001.89
2022-02-15 06:08:00,,0819.7,5.01,0.00,23.8,23.0,00.0,32.9,25.4,05.1,0000.0,0003.90,0002.32,0001.88
2022-02-15 06:09:00,,0819.7,4.98,0.00,23.7,23.0,00.0,32.9,25.4,05.3,0000.0,0003.80,0002.30,0001.91
2022-02-15 06:10:00,,0819.7,5.01,0.00,23.8,23.0,00.0,32.9,25.4,05.3,0000.0,0003.86,0002.30,0001.94
2022-02-15 06:11:00,,0819.7,4.99,0.00,23.8,23.0,00.0,32.9,25.4,05.3,0000.0,0004.06,0002.43,0002.03
2022-02-15 06:12:00,,0819.7,5.00,0.00,23.8,23.0,00.0,32.9,25.5,05.1,0000.0,0004.15,0002.51,0002.09
2022-02-15 06:13:00,,0819.6,5.00,0.00,23.8,23.1,00.0,32.9,25.5,04.8,0000.0,0004.12,0002.51,0002.09
2022-02-15 06:14:00,,0819.6,4.99,0.00,23.8,23.1,00.0,32.9,25.5,04.6,0000.0,0004.12,0002.51,0002.10
2022-02-15 06:15:00,,0819.6,5.01,0.00,23.8,23.2,00.0,32.9,25.5,04.5,0000.0,0004.12,0002.51,0002.12
2022-02-15 06:16:00,,0819.6,5.01,0.00,23.8,23.1,00.0,32.9,25.5,04.7,0000.0,0003.98,0002.52,0002.15
2022-02-15 06:17:00,,0819.6,4.98,0.00,23.8,23.1,00.0,32.9,25.5,04.6,0000.0,0004.25,0002.59,0002.19
2022-02-15 06:18:00,,0819.5,4.99,0.00,23.8,23.1,00.0,32.9,25.5,04.7,0000.0,0005.21,0002.62,0002.20
2022-02-15 06:19:00,,0819.5,5.02,0.00,23.8,23.1,00.0,32.9,25.5,04.7,0000.0,0005.24,0002.59,0002.16
2022-02-15 06:20:00,,0819.5,4.99,0.00,23.8,23.0,00.0,32.8,25.4,04.3,0000.0,0005.21,0002.52,0002.07
2022-02-15 06:21:00,,0819.6,5.00,0.00,23.8,23.0,00.0,32.8,25.4,04.2,0000.0,0005.02,0002.43,0001.99
2022-02-15 06:22:00,,0819.5,5.00,0.00,23.8,23.0,00.0,32.8,25.5,04.6,0000.0,0004.83,0002.26,0001.83
2022-02-15 06:23:00,,0819.6,5.01,0.00,23.8,23.0,00.0,32.8,25.5,04.7,0000.0,0004.71,0002.12,0001.72
2022-02-15 06:24:00,,0819.5,5.01,0.00,23.8,23.1,00.0,32.9,25.5,04.5,0000.0,0004.55,0002.03,0001.67
2022-02-15 06:25:00,,0819.5,5.00,0.00,23.8,23.0,00.0,32.8,25.5,04.5,0000.0,0004.43,0001.98,0001.62
2022-02-15 06:26:00,,0819.5,4.99,0.00,23.8,23.1,00.0,32.8,25.5,04.7,0000.0,0004.31,0001.93,0001.59
2022-02-15 06:27:00,,0819.5,5.01,0.00,23.8,23.1,00.0,32.8,25.5,04.8,0000.0,0004.14,0001.92,0001.55
2022-02-15 06:28:00,,0819.5,5.01,0.00,23.8,23.1,00.0,32.8,25.5,04.7,0000.0,0003.79,0001.87,0001.50
2022-02-15 06:29:00,,0819.5,4.99,0.00,23.8,23.1,00.0,32.8,25.5,05.0,0000.0,0002.82,0001.83,0001.46
2022-02-15 06:30:00,,0819.5,4.99,0.00,23.8,23.1,00.0,32.8,25.5,04.8,0000.0,0002.82,0001.83,0001.42
2022-02-15 06:31:00,,0819.5,5.01,0.00,23.8,23.1,00.0,32.8,25.5,04.7,0000.0,0002.80,0001.82,0001.40
2022-02-15 06:32:00,,0819.5,4.98,0.00,23.8,23.1,00.0,32.8,25.5,04.9,0000.0,0002.71,0001.79,0001.38
2022-02-15 06:33:00,,0819.4,5.02,0.00,23.8,23.1,00.0,32.8,25.5,04.6,0000.0,0002.63,0001.78,0001.38
2022-02-15 06:34:00,,0819.5,4.99,0.00,23.8,23.1,00.0,32.8,25.5,04.3,0000.0,0003.13,0001.75,0001.35
2022-02-15 06:35:00,,0819.5,4.99,0.00,23.8,23.1,00.0,32.8,25.5,04.4,0000.0,0003.85,0001.74,0001.33
2022-02-15 06:36:00,,0819.5,5.00,0.00,23.8,23.1,00.0,32.8,25.5,04.3,0000.0,0003.84,0001.74,0001.31
2022-02-15 06:37:00,,0819.5,4.99,0.00,23.9,23.1,00.0,32.8,25.5,04.0,0000.0,0003.80,0001.73,0001.30
2022-02-15 06:38:00,,0819.5,5.00,0.00,23.9,23.1,00.0,32.9,25.6,04.4,0000.0,0003.70,0001.70,0001.29
2022-02-15 06:39:00,,0819.5,4.99,0.00,23.9,23.0,00.0,32.9,25.5,04.3,0000.0,0003.67,0001.67,0001.28
2022-02-15 06:40:00,,0819.5,5.01,0.00,23.9,23.0,00.0,32.8,25.5,04.3,0000.0,0003.65,0001.67,0001.28
2022-02-15 06:41:00,,0819.5,4.98,0.00,23.9,23.0,00.0,32.9,25.5,04.6,0000.0,0003.66,0001.66,0001.28
2022-02-15 06:42:00,,0819.5,5.01,0.00,23.9,23.0,00.0,32.9,25.5,04.4,0000.0,0003.63,0001.65,0001.29
2022-02-15 06:43:00,,0819.5,4.99,0.00,23.9,23.0,00.0,32.9,25.5,04.6,0000.0,0003.73,0001.70,0001.30
2022-02-15 06:44:00,,0819.6,5.00,0.00,23.8,23.0,00.0,32.9,25.5,04.7,0000.0,0004.24,0001.68,0001.30
2022-02-15 06:45:00,,0819.5,5.00,0.00,23.9,23.0,00.0,32.9,25.5,04.9,0000.0,0004.38,0001.72,0001.31
2022-02-15 06:46:00,,0819.5,4.99,0.00,23.8,23.0,00.0,32.9,25.5,04.6,0000.0,0003.50,0001.75,0001.34
2022-02-15 06:47:00,,0819.6,5.01,0.00,23.8,23.0,00.0,32.9,25.5,04.9,0000.0,0003.67,0001.84,0001.37
2022-02-15 06:48:00,,0819.5,4.99,0.00,23.8,23.0,00.0,32.9,25.5,05.4,0000.0,0003.79,0001.90,0001.42
2022-02-15 06:49:00,,0819.5,5.01,0.00,23.8,22.9,00.0,32.9,25.5,05.1,0000.0,0004.07,0001.94,0001.48
2022-02-15 06:50:00,,0819.4,4.98,0.00,23.8,22.9,00.0,32.9,25.5,04.9,0000.0,0004.72,0001.98,0001.53
2022-02-15 06:51:00,,0819.4,5.00,0.00,23.8,22.9,00.0,32.9,25.5,04.9,0000.0,0004.73,0001.99,0001.56
2022-02-15 06:52:00,,0819.4,4.99,0.00,23.8,22.9,00.0,32.8,25.5,05.4,0000.0,0004.83,0002.06,0001.62
2022-02-15 06:53:00,,0819.4,5.01,0.00,23.8,22.9,00.0,32.8,25.4,05.1,0000.0,0005.02,0002.18,0001.70
2022-02-15 06:54:00,,0819.4,4.98,0.00,23.8,22.9,00.0,32.8,25.5,04.9,0000.0,0005.35,0002.25,0001.76
2022-02-15 06:55:00,,0819.4,5.02,0.00,23.8,23.0,00.0,32.8,25.5,05.1,0000.0,0005.06,0002.30,0001.81
2022-02-15 06:56:00,,0819.4,5.00,0.00,23.8,23.0,00.0,32.8,25.5,05.0,0000.0,0004.67,0002.33,0001.85
2022-02-15 06:57:00,,0819.4,4.99,0.00,23.8,23.0,00.0,32.8,25.5,04.9,0000.0,0004.75,0002.35,0001.86
2022-02-15 06:58:00,,0819.4,5.02,0.00,23.7,22.9,00.0,32.8,25.5,04.9,0000.0,0004.67,0002.29,0001.86
2022-02-15 06:59:00,,0819.4,4.99,0.00,23.7,22.9,00.0,32.8,25.4,04.8,0000.0,0004.56,0002.23,0001.82
